Hourly Data Report for October 10, 2000

SHERBROOKE A
QUEBEC

45°26'00.000" N
71°41'00.000" W
241.40 m
7028124
71610
YSC

Download Data

Hourly Data (October 2000)
Hourly Data Report for October 10, 2000
TIME
LST
Temp Definition
°C
Dew Point Definition
°C
Rel Hum Definition
%
Precip. Amount Definition
mm

Wind Dir Definition
10's deg

Wind Spd Definition
km/h
Visibility Definition
km
Stn Press Definition
kPa
Hmdx Definition


Wind Chill Definition


Weather Definition


00:00 1.4 0.8 96   28 4 15.0 98.55      
01:00 1.5 0.5 93     0 15.0 98.45      
02:00 1.6 0.9 95   30 4 15.0 98.36     Rain
03:00 1.1 0.5 96   29 7 8.0 98.32      
04:00 0.4 0.0 97   30 7 3.9 98.26      
05:00 0.3 -0.1 97   29 9 4.0 98.19      
06:00 0.2 -0.2 97   28 9 2.9 98.12      
07:00 0.2 -0.3 96   27 9 2.4 98.09     Snow
08:00 0.2 0.0 99   26 19 1.6 98.02     Snow, Fog
09:00 0.3 -0.1 97   27 19 1.2 97.99     Snow, Fog
10:00 0.6 0.2 97   27 20 3.2 97.96     Snow
11:00 1.2 0.6 96   26 20 4.0 97.89     Snow
12:00 0.7 0.1 96   26 20 3.2 97.83     Snow
13:00 0.7 0.1 96   26 13 4.0 97.76     Snow
14:00 0.4 0.0 97   26 15 1.6 97.73     Snow Showers,Snow Pellets
15:00 0.9 0.4 96   25 17 6.4 97.69     Snow Showers
16:00 0.3 -0.1 97   26 22 0.8 97.69     Moderate Snow Showers
17:00 0.3 -0.1 97   24 13 1.9 97.73      
18:00 0.3 -0.2 96   25 13 3.1 97.76      
19:00 0.1 -0.3 97   24 15 1.4 97.76     Heavy Freezing Drizzle
20:00 0.1 -0.2 98   24 19 1.0 97.76      
21:00 0.1 -0.1 99   25 19 0.8 97.76     Heavy Freezing Drizzle
22:00 0.2 -0.1 98   24 17 1.8 97.73      
23:00 0.2 -0.1 98   25 17 1.4 97.69      

Notes on Data Quality.

Legend

  • E = Estimated
  • M = Missing
  • NA = Not Available*
  • [empty] = Indicates an unobserved value
Date modified: